QPF
0.07 0.09 0.11 0.13 0.11 0.12 0.10 0.08 0.09 0.09 0.09 0.07 0.07 0.09 0.13 0.14 0.13 0.14 0.13 0.14 0.14 0.13 0.13 0.13 0.11 0.11 0.10 0.11 0.09 0.06 0.06 0.06 0.06 0.06 0.05 0.04 0.04 0.04 0.03 0.02 0.02 0.02 0.02
0.10 0.15 0.16 0.13 0.09 0.09 0.09 0.10 0.11 0.09 0.08 0.06 0.05 0.05 0.07 0.09 0.10 0.09 0.11 0.12 0.10 0.08 0.10 0.13 0.13 0.12 0.12 0.12 0.11 0.09 0.08 0.07 0.08 0.07 0.06 0.05 0.05 0.05 0.04 0.03 0.02 0.03 0.02
0.12 0.15 0.18 0.18 0.12 0.08 0.06 0.06 0.08 0.09 0.06 0.05 0.05 0.04 0.06 0.06 0.06 0.05 0.07 0.09 0.09 0.09 0.10 0.10 0.11 0.11 0.10 0.11 0.11 0.11 0.10 0.09 0.09 0.08 0.08 0.07 0.07 0.06 0.05 0.04 0.03 0.03 0.03
0.08 0.08 0.08 0.08 0.07 0.07 0.05 0.05 0.07 0.09 0.07 0.04 0.04 0.05 0.05 0.05 0.04 0.04 0.05 0.06 0.07 0.06 0.07 0.08 0.08 0.09 0.10 0.10 0.10 0.11 0.11 0.10 0.09 0.08 0.09 0.10 0.08 0.07 0.05 0.04 0.03 0.03 0.03
0.05 0.05 0.05 0.04 0.03 0.02 0.03 0.04 0.06 0.05 0.05 0.04 0.04 0.03 0.03 0.03 0.04 0.05 0.06 0.06 0.05 0.05 0.04 0.06 0.08 0.09 0.09 0.11 0.11 0.13 0.14 0.11 0.09 0.09 0.08 0.09 0.09 0.07 0.06 0.05 0.04 0.03 0.02
0.06 0.06 0.04 0.03 0.03 0.03 0.03 0.04 0.04 0.04 0.06 0.06 0.04 0.04 0.03 0.04 0.05 0.05 0.04 0.05 0.06 0.05 0.03 0.04 0.05 0.07 0.08 0.09 0.10 0.13 0.16 0.15 0.15 0.12 0.10 0.11 0.11 0.10 0.08 0.06 0.06 0.05 0.05
0.04 0.04 0.05 0.04 0.04 0.03 0.04 0.07 0.07 0.06 0.06 0.05 0.05 0.05 0.04 0.04 0.04 0.04 0.04 0.04 0.04 0.04 0.03 0.04 0.05 0.07 0.07 0.07 0.08 0.09 0.12 0.16 0.19 0.16 0.13 0.11 0.10 0.08 0.08 0.08 0.07 0.06 0.06
0.03 0.03 0.05 0.06 0.06 0.04 0.03 0.04 0.08 0.09 0.07 0.06 0.06 0.06 0.04 0.04 0.04 0.04 0.04 0.04 0.04 0.04 0.04 0.04 0.04 0.05 0.05 0.06 0.05 0.06 0.09 0.11 0.14 0.16 0.15 0.13 0.11 0.10 0.08 0.09 0.09 0.09 0.07
0.03 0.04 0.06 0.05 0.05 0.04 0.04 0.04 0.05 0.07 0.07 0.07 0.08 0.07 0.05 0.03 0.04 0.05 0.06 0.07 0.07 0.04 0.03 0.02 0.03 0.03 0.04 0.04 0.03 0.05 0.06 0.07 0.08 0.10 0.11 0.11 0.12 0.11 0.11 0.10 0.09 0.10 0.11
0.03 0.03 0.04 0.05 0.05 0.03 0.03 0.04 0.03 0.03 0.04 0.05 0.06 0.05 0.07 0.06 0.05 0.05 0.06 0.09 0.09 0.06 0.03 0.02 0.02 0.03 0.04 0.04 0.04 0.05 0.05 0.06 0.05 0.06 0.08 0.09 0.10 0.11 0.11 0.12 0.13 0.14 0.15
0.04 0.03 0.03 0.03 0.02 0.02 0.02 0.03 0.03 0.02 0.02 0.03 0.03 0.04 0.05 0.05 0.04 0.05 0.05 0.07 0.08 0.06 0.03 0.02 0.02 0.02 0.03 0.04 0.04 0.05 0.06 0.07 0.06 0.06 0.08 0.09 0.10 0.11 0.12 0.15 0.16 0.17 0.19
0.04 0.03 0.03 0.02 0.02 0.02 0.02 0.02 0.02 0.02 0.02 0.03 0.03 0.03 0.04 0.04 0.05 0.05 0.04 0.03 0.04 0.04 0.04 0.03 0.02 0.02 0.03 0.03 0.03 0.05 0.05 0.05 0.06 0.08 0.09 0.10 0.12 0.14 0.16 0.16 0.15 0.18 0.21
0.03 0.03 0.03 0.03 0.02 0.02 0.01 0.02 0.03 0.04 0.06 0.06 0.05 0.03 0.02 0.02 0.04 0.04 0.04 0.03 0.03 0.03 0.03 0.03 0.03 0.03 0.03 0.03 0.04 0.04 0.03 0.03 0.05 0.07 0.08 0.10 0.12 0.12 0.11 0.11 0.15 0.19 0.21
0.03 0.02 0.02 0.02 0.02 0.03 0.02 0.02 0.03 0.04 0.06 0.05 0.04 0.03 0.01 0.01 0.03 0.04 0.04 0.04 0.04 0.02 0.02 0.04 0.04 0.04 0.04 0.04 0.05 0.05 0.03 0.03 0.03 0.04 0.06 0.08 0.10 0.12 0.10 0.09 0.11 0.12 0.13
0.02 0.01 0.01 0.01 0.02 0.02 0.01 0.01 0.01 0.01 0.02 0.02 0.02 0.02 0.01 0.01 0.02 0.03 0.03 0.03 0.04 0.03 0.02 0.02 0.03 0.04 0.02 0.02 0.02 0.02 0.02 0.02 0.02 0.03 0.05 0.06 0.07 0.08 0.09 0.08 0.07 0.07 0.08
0.01 0.01 0.01 0.01 0.01 0.01 0.01 0.01 0.02 0.02 0.01 0.02 0.03 0.03 0.01 0.01 0.02 0.03 0.03 0.03 0.04 0.04 0.03 0.02 0.02 0.03 0.03 0.02 0.01 0.01 0.01 0.02 0.02 0.02 0.05 0.07 0.08 0.08 0.08 0.07 0.06 0.05 0.05
0.01 0.02 0.01 0.01 0.01 0.01 0.01 0.01 0.02 0.02 0.02 0.01 0.01 0.01 0.01 0.01 0.02 0.02 0.03 0.04 0.04 0.03 0.03 0.02 0.02 0.02 0.02 0.02 0.02 0.01 0.01 0.01 0.01 0.02 0.04 0.06 0.06 0.07 0.06 0.04 0.03 0.03 0.03
0.02 0.02 0.01 0.01 0.01 0.01 0.00 0.01 0.01 0.02 0.02 0.01 0.01 0.01 0.01 0.01 0.02 0.03 0.03 0.04 0.05 0.04 0.03 0.02 0.02 0.02 0.03 0.03 0.02 0.02 0.02 0.02 0.02 0.03 0.04 0.06 0.06 0.05 0.03 0.02 0.01 0.01 0.02
0.01 0.01 0.01 0.00 0.00 0.00 0.00 0.00 0.01 0.01 0.01 0.01 0.02 0.03 0.02 0.03 0.03 0.03 0.04 0.04 0.05 0.05 0.04 0.03 0.03 0.03 0.04 0.05 0.04 0.03 0.04 0.04 0.04 0.04 0.03 0.04 0.03 0.03 0.02 0.01 0.01 0.02 0.03
0.01 0.01 0.00 0.00 0.00 0.00 0.00 0.00 0.01 0.01 0.01 0.01 0.02 0.02 0.02 0.02 0.03 0.03 0.05 0.05 0.05 0.05 0.05 0.05 0.05 0.05 0.05 0.06 0.04 0.03 0.04 0.05 0.04 0.04 0.05 0.05 0.05 0.03 0.02 0.02 0.02 0.02 0.02
0.01 0.01 0.01 0.00 0.00 0.00 0.00 0.00 0.01 0.01 0.01 0.01 0.01 0.02 0.02 0.03 0.03 0.04 0.04 0.04 0.04 0.04 0.05 0.06 0.07 0.07 0.06 0.05 0.03 0.03 0.04 0.04 0.05 0.05 0.05 0.04 0.04 0.02 0.02 0.01 0.01 0.01 0.01
0.01 0.01 0.01 0.01 0.00 0.00 0.00 0.01 0.01 0.01 0.02 0.02 0.03 0.03 0.04 0.04 0.03 0.03 0.03 0.04 0.04 0.05 0.07 0.08 0.08 0.07 0.06 0.05 0.03 0.04 0.04 0.04 0.05 0.05 0.05 0.05 0.03 0.02 0.01 0.01 0.01 0.01 0.01
0.01 0.01 0.01 0.01 0.00 0.00 0.00 0.00 0.01 0.02 0.03 0.03 0.02 0.03 0.02 0.03 0.03 0.03 0.03 0.04 0.04 0.05 0.07 0.08 0.08 0.08 0.06 0.05 0.04 0.05 0.06 0.05 0.05 0.04 0.03 0.04 0.03 0.03 0.02 0.01 0.01 0.01 0.01
0.00 0.00 0.00 0.00 0.00 0.00 0.01 0.00 0.00 0.01 0.01 0.01 0.01 0.02 0.02 0.02 0.03 0.04 0.04 0.03 0.03 0.04 0.05 0.06 0.06 0.06 0.04 0.05 0.05 0.06 0.06 0.04 0.03 0.03 0.03 0.03 0.03 0.03 0.02 0.01 0.01 0.01 0.01
0.00 0.00 0.00 0.00 0.01 0.01 0.01 0.01 0.01 0.01 0.01 0.01 0.01 0.02 0.02 0.02 0.03 0.04 0.03 0.03 0.03 0.04 0.05 0.07 0.06 0.04 0.03 0.03 0.04 0.04 0.04 0.03 0.02 0.03 0.02 0.02 0.03 0.02 0.02 0.02 0.01 0.00 0.00
0.00 0.00 0.00 0.01 0.01 0.01 0.01 0.00 0.01 0.01 0.01 0.01 0.01 0.02 0.03 0.03 0.03 0.04 0.03 0.02 0.02 0.02 0.03 0.03 0.03 0.02 0.02 0.02 0.03 0.02 0.02 0.02 0.02 0.02 0.01 0.01 0.02 0.02 0.02 0.02 0.01 0.00 0.00
MSLP
1018.76 1018.54 1018.30 1018.09 1017.96 1017.91 1017.95 1018.05 1018.16 1018.25 1018.29 1018.25 1018.15 1018.00 1017.83 1017.67 1017.55 1017.49 1017.49 1017.54 1017.63 1017.73 1017.84 1017.96 1018.08 1018.20 1018.33 1018.48 1018.62 1018.77 1018.91 1019.05 1019.17 1019.30 1019.43 1019.58 1019.74 1019.92 1020.10 1020.28 1020.44 1020.57 1020.67
1018.95 1018.65 1018.35 1018.09 1017.91 1017.81 1017.80 1017.86 1017.95 1018.02 1018.05 1018.01 1017.90 1017.74 1017.55 1017.37 1017.21 1017.11 1017.06 1017.08 1017.14 1017.24 1017.38 1017.53 1017.69 1017.85 1018.02 1018.17 1018.31 1018.44 1018.56 1018.66 1018.77 1018.90 1019.04 1019.21 1019.40 1019.60 1019.80 1019.99 1020.14 1020.27 1020.36
1019.17 1018.83 1018.48 1018.17 1017.94 1017.79 1017.73 1017.74 1017.77 1017.81 1017.81 1017.75 1017.64 1017.47 1017.28 1017.07 1016.88 1016.74 1016.65 1016.62 1016.65 1016.74 1016.88 1017.05 1017.25 1017.45 1017.64 1017.81 1017.96 1018.08 1018.19 1018.28 1018.38 1018.49 1018.63 1018.80 1019.00 1019.21 1019.41 1019.60 1019.76 1019.89 1020.00
1019.40 1019.03 1018.66 1018.33 1018.06 1017.86 1017.74 1017.68 1017.65 1017.63 1017.58 1017.50 1017.38 1017.21 1017.01 1016.80 1016.59 1016.42 1016.29 1016.22 1016.21 1016.28 1016.40 1016.58 1016.79 1017.01 1017.23 1017.43 1017.60 1017.73 1017.83 1017.92 1018.00 1018.09 1018.22 1018.37 1018.55 1018.75 1018.94 1019.12 1019.28 1019.42 1019.55
1019.61 1019.24 1018.88 1018.53 1018.24 1018.00 1017.82 1017.68 1017.57 1017.48 1017.38 1017.26 1017.12 1016.96 1016.77 1016.57 1016.37 1016.18 1016.03 1015.93 1015.89 1015.92 1016.02 1016.18 1016.39 1016.62 1016.86 1017.08 1017.26 1017.40 1017.51 1017.58 1017.64 1017.71 1017.80 1017.92 1018.06 1018.22 1018.39 1018.56 1018.72 1018.88 1019.05
1019.80 1019.44 1019.09 1018.76 1018.45 1018.18 1017.94 1017.72 1017.53 1017.36 1017.20 1017.05 1016.89 1016.74 1016.58 1016.41 1016.24 1016.07 1015.92 1015.80 1015.73 1015.73 1015.80 1015.93 1016.12 1016.35 1016.59 1016.81 1017.00 1017.14 1017.24 1017.30 1017.33 1017.36 1017.40 1017.46 1017.55 1017.66 1017.80 1017.95 1018.11 1018.30 1018.52
1019.94 1019.61 1019.29 1018.98 1018.67 1018.37 1018.08 1017.80 1017.53 1017.28 1017.06 1016.87 1016.71 1016.58 1016.46 1016.34 1016.22 1016.09 1015.96 1015.85 1015.78 1015.75 1015.78 1015.88 1016.04 1016.24 1016.46 1016.67 1016.85 1016.97 1017.05 1017.08 1017.07 1017.05 1017.03 1017.03 1017.05 1017.11 1017.21 1017.34 1017.52 1017.74 1018.02
1020.06 1019.76 1019.47 1019.18 1018.88 1018.57 1018.24 1017.90 1017.57 1017.25 1016.98 1016.76 1016.59 1016.48 1016.40 1016.35 1016.29 1016.23 1016.15 1016.08 1016.01 1015.97 1015.99 1016.05 1016.18 1016.34 1016.52 1016.69 1016.83 1016.92 1016.96 1016.94 1016.88 1016.80 1016.72 1016.65 1016.62 1016.63 1016.69 1016.82 1017.02 1017.29 1017.64
1020.18 1019.90 1019.64 1019.37 1019.09 1018.77 1018.42 1018.04 1017.65 1017.28 1016.96 1016.71 1016.54 1016.45 1016.41 1016.42 1016.43 1016.44 1016.43 1016.40 1016.37 1016.35 1016.36 1016.40 1016.49 1016.61 1016.74 1016.86 1016.95 1016.99 1016.97 1016.89 1016.77 1016.63 1016.49 1016.38 1016.30 1016.28 1016.34 1016.47 1016.70 1017.02 1017.44
1020.32 1020.05 1019.80 1019.56 1019.29 1018.98 1018.62 1018.21 1017.78 1017.37 1017.01 1016.73 1016.54 1016.45 1016.45 1016.49 1016.57 1016.64 1016.70 1016.74 1016.76 1016.78 1016.80 1016.85 1016.92 1017.01 1017.09 1017.16 1017.18 1017.16 1017.08 1016.94 1016.77 1016.58 1016.40 1016.25 1016.16 1016.14 1016.20 1016.36 1016.63 1017.00 1017.48
1020.47 1020.21 1019.97 1019.74 1019.49 1019.18 1018.82 1018.40 1017.95 1017.50 1017.11 1016.79 1016.58 1016.47 1016.46 1016.52 1016.62 1016.75 1016.87 1016.97 1017.06 1017.13 1017.20 1017.28 1017.36 1017.44 1017.49 1017.52 1017.49 1017.41 1017.27 1017.09 1016.88 1016.66 1016.47 1016.32 1016.24 1016.24 1016.34 1016.54 1016.84 1017.26 1017.78
1020.64 1020.37 1020.13 1019.91 1019.66 1019.37 1019.00 1018.58 1018.12 1017.65 1017.22 1016.86 1016.60 1016.44 1016.39 1016.43 1016.54 1016.68 1016.84 1017.00 1017.16 1017.31 1017.46 1017.60 1017.72 1017.82 1017.88 1017.89 1017.84 1017.73 1017.56 1017.35 1017.12 1016.91 1016.73 1016.61 1016.57 1016.62 1016.76 1017.00 1017.34 1017.78 1018.32
1020.79 1020.51 1020.26 1020.04 1019.79 1019.51 1019.15 1018.74 1018.27 1017.78 1017.32 1016.90 1016.57 1016.35 1016.23 1016.20 1016.27 1016.40 1016.57 1016.78 1017.00 1017.24 1017.49 1017.72 1017.93 1018.10 1018.21 1018.24 1018.21 1018.10 1017.93 1017.72 1017.51 1017.33 1017.19 1017.12 1017.14 1017.24 1017.44 1017.72 1018.09 1018.53 1019.04
1020.89 1020.60 1020.34 1020.10 1019.86 1019.57 1019.23 1018.82 1018.36 1017.86 1017.36 1016.89 1016.49 1016.17 1015.95 1015.84 1015.83 1015.91 1016.07 1016.31 1016.60 1016.93 1017.29 1017.64 1017.97 1018.25 1018.45 1018.56 1018.58 1018.51 1018.38 1018.21 1018.04 1017.91 1017.83 1017.83 1017.91 1018.08 1018.32 1018.64 1019.00 1019.42 1019.88
1020.94 1020.62 1020.34 1020.09 1019.83 1019.55 1019.21 1018.81 1018.36 1017.85 1017.32 1016.81 1016.33 1015.92 1015.59 1015.37 1015.27 1015.28 1015.42 1015.66 1016.00 1016.43 1016.90 1017.39 1017.86 1018.28 1018.61 1018.83 1018.95 1018.96 1018.90 1018.80 1018.70 1018.63 1018.61 1018.68 1018.82 1019.04 1019.32 1019.64 1019.99 1020.35 1020.73
1020.92 1020.58 1020.27 1019.99 1019.72 1019.42 1019.09 1018.70 1018.26 1017.76 1017.22 1016.66 1016.12 1015.63 1015.20 1014.88 1014.67 1014.61 1014.70 1014.94 1015.32 1015.82 1016.41 1017.04 1017.66 1018.23 1018.71 1019.07 1019.31 1019.44 1019.47 1019.45 1019.42 1019.42 1019.47 1019.59 1019.78 1020.02 1020.31 1020.62 1020.92 1021.23 1021.52
1020.86 1020.49 1020.15 1019.84 1019.53 1019.22 1018.88 1018.50 1018.07 1017.58 1017.05 1016.48 1015.91 1015.35 1014.85 1014.44 1014.14 1014.01 1014.05 1014.27 1014.67 1015.23 1015.91 1016.66 1017.43 1018.15 1018.78 1019.29 1019.66 1019.90 1020.04 1020.11 1020.15 1020.21 1020.30 1020.46 1020.67 1020.92 1021.19 1021.46 1021.72 1021.94 1022.14
1020.80 1020.40 1020.02 1019.66 1019.32 1018.98 1018.63 1018.25 1017.83 1017.37 1016.85 1016.29 1015.71 1015.13 1014.59 1014.12 1013.76 1013.57 1013.56 1013.76 1014.16 1014.75 1015.50 1016.34 1017.22 1018.07 1018.84 1019.47 1019.97 1020.32 1020.56 1020.70 1020.81 1020.91 1021.03 1021.19 1021.39 1021.62 1021.86 1022.08 1022.28 1022.44 1022.56
1020.77 1020.34 1019.92 1019.52 1019.13 1018.75 1018.38 1017.99 1017.59 1017.15 1016.66 1016.14 1015.58 1015.01 1014.46 1013.97 1013.58 1013.34 1013.29 1013.46 1013.85 1014.45 1015.23 1016.12 1017.07 1018.01 1018.87 1019.61 1020.21 1020.65 1020.96 1021.17 1021.32 1021.44 1021.57 1021.72 1021.89 1022.08 1022.26 1022.44 1022.57 1022.67 1022.74
1020.82 1020.36 1019.90 1019.44 1019.00 1018.58 1018.18 1017.78 1017.38 1016.96 1016.51 1016.04 1015.52 1015.00 1014.47 1013.99 1013.60 1013.35 1013.27 1013.41 1013.77 1014.35 1015.11 1016.01 1016.99 1017.96 1018.88 1019.69 1020.35 1020.85 1021.22 1021.47 1021.64 1021.76 1021.88 1022.00 1022.13 1022.26 1022.40 1022.51 1022.60 1022.66 1022.68
1020.94 1020.46 1019.97 1019.48 1018.99 1018.52 1018.08 1017.66 1017.25 1016.85 1016.44 1016.01 1015.56 1015.09 1014.62 1014.18 1013.81 1013.56 1013.47 1013.57 1013.89 1014.42 1015.15 1016.01 1016.97 1017.94 1018.86 1019.69 1020.38 1020.92 1021.31 1021.58 1021.76 1021.87 1021.96 1022.04 1022.12 1022.21 1022.29 1022.36 1022.40 1022.43 1022.43
1021.12 1020.65 1020.14 1019.62 1019.10 1018.59 1018.11 1017.66 1017.24 1016.84 1016.46 1016.08 1015.69 1015.29 1014.89 1014.51 1014.18 1013.94 1013.85 1013.92 1014.19 1014.66 1015.31 1016.11 1017.00 1017.92 1018.81 1019.62 1020.31 1020.85 1021.25 1021.52 1021.69 1021.79 1021.85 1021.89 1021.93 1021.97 1022.00 1022.03 1022.04 1022.04 1022.04
1021.34 1020.89 1020.40 1019.88 1019.34 1018.80 1018.28 1017.80 1017.36 1016.97 1016.61 1016.26 1015.93 1015.59 1015.26 1014.94 1014.66 1014.45 1014.35 1014.40 1014.62 1015.01 1015.58 1016.28 1017.09 1017.93 1018.76 1019.52 1020.17 1020.69 1021.08 1021.35 1021.50 1021.59 1021.63 1021.64 1021.64 1021.63 1021.63 1021.62 1021.60 1021.58 1021.56
1021.57 1021.17 1020.72 1020.22 1019.69 1019.14 1018.60 1018.10 1017.64 1017.24 1016.88 1016.56 1016.27 1015.99 1015.71 1015.45 1015.22 1015.04 1014.95 1014.97 1015.14 1015.46 1015.94 1016.54 1017.24 1017.99 1018.73 1019.42 1020.02 1020.50 1020.87 1021.11 1021.26 1021.33 1021.35 1021.34 1021.31 1021.28 1021.24 1021.20 1021.16 1021.11 1021.05
1021.77 1021.46 1021.07 1020.62 1020.12 1019.58 1019.04 1018.53 1018.06 1017.64 1017.28 1016.97 1016.71 1016.46 1016.24 1016.02 1015.83 1015.69 1015.60 1015.61 1015.74 1016.00 1016.38 1016.88 1017.47 1018.11 1018.75 1019.36 1019.89 1020.32 1020.66 1020.88 1021.01 1021.07 1021.08 1021.06 1021.01 1020.96 1020.90 1020.83 1020.75 1020.66 1020.56
1021.94 1021.71 1021.41 1021.03 1020.58 1020.08 1019.56 1019.05 1018.58 1018.16 1017.79 1017.49 1017.23 1017.01 1016.82 1016.64 1016.49 1016.37 1016.30 1016.30 1016.39 1016.59 1016.89 1017.30 1017.78 1018.31 1018.85 1019.36 1019.82 1020.20 1020.49 1020.69 1020.80 1020.85 1020.85 1020.82 1020.77 1020.69 1020.61 1020.51 1020.39 1020.25 1020.10
Thickness
5710 5710 5709 5709 5710 5710 5710 5710 5710 5711 5712 5712 5713 5713 5714 5714 5714 5714 5715 5716 5717 5717 5716 5716 5715 5715 5714 5713 5712 5711 5710 5709 5708 5707 5707 5706 5705 5704 5703 5702 5701 5701 5700
5705 5705 5704 5704 5705 5705 5705 5705 5706 5707 5707 5708 5708 5709 5709 5709 5710 5710 5712 5712 5713 5713 5713 5713 5712 5712 5712 5711 5710 5709 5708 5708 5707 5706 5705 5704 5703 5702 5701 5700 5699 5698 5697
5700 5699 5698 5698 5699 5700 5700 5700 5700 5701 5702 5702 5703 5704 5704 5704 5704 5706 5707 5708 5708 5709 5709 5709 5709 5709 5709 5709 5708 5707 5706 5706 5705 5704 5704 5702 5701 5700 5699 5698 5697 5696 5695
5693 5693 5692 5692 5693 5694 5694 5695 5694 5695 5695 5696 5697 5698 5699 5699 5699 5700 5701 5702 5702 5703 5704 5705 5705 5705 5705 5705 5705 5705 5704 5704 5703 5703 5702 5701 5699 5698 5697 5695 5694 5693 5692
5686 5686 5685 5685 5686 5687 5688 5688 5688 5688 5688 5689 5690 5692 5693 5693 5694 5694 5694 5695 5696 5697 5698 5699 5700 5700 5701 5701 5701 5702 5702 5701 5700 5700 5699 5698 5697 5696 5694 5693 5691 5690 5689
5680 5679 5678 5679 5679 5680 5680 5680 5680 5680 5681 5682 5684 5684 5685 5686 5687 5687 5688 5688 5689 5690 5691 5692 5694 5694 5695 5696 5697 5698 5698 5698 5697 5696 5696 5695 5694 5693 5691 5690 5688 5687 5686
5672 5672 5671 5671 5671 5672 5671 5672 5672 5672 5673 5674 5674 5673 5675 5677 5679 5679 5680 5680 5681 5682 5683 5685 5686 5687 5688 5689 5691 5692 5693 5693 5693 5693 5692 5691 5690 5689 5688 5687 5685 5684 5682
5665 5664 5663 5663 5663 5664 5663 5664 5664 5663 5664 5665 5663 5661 5661 5663 5667 5670 5670 5671 5672 5674 5675 5676 5678 5679 5680 5681 5683 5685 5686 5687 5688 5688 5687 5687 5686 5685 5683 5682 5681 5680 5678
5657 5657 5656 5656 5656 5655 5654 5655 5655 5655 5654 5655 5655 5653 5651 5651 5653 5657 5659 5661 5663 5665 5666 5667 5669 5671 5672 5673 5674 5676 5678 5680 5681 5681 5681 5681 5680 5679 5678 5677 5676 5675 5674
5648 5648 5648 5647 5647 5646 5646 5646 5648 5647 5646 5645 5646 5647 5647 5647 5644 5645 5647 5650 5653 5654 5656 5658 5660 5661 5663 5664 5666 5668 5670 5671 5673 5673 5674 5674 5673 5673 5672 5672 5671 5671 5670
5639 5639 5639 5638 5638 5638 5637 5638 5638 5639 5639 5638 5637 5637 5638 5638 5639 5637 5638 5639 5642 5644 5646 5649 5650 5652 5654 5655 5657 5659 5661 5662 5664 5665 5665 5665 5665 5666 5665 5665 5665 5664 5664
5629 5629 5630 5629 5629 5629 5629 5629 5629 5629 5630 5630 5630 5629 5628 5629 5629 5630 5630 5630 5631 5633 5637 5639 5641 5642 5644 5646 5648 5650 5652 5653 5654 5655 5656 5656 5657 5657 5657 5657 5656 5656 5655
5619 5619 5620 5620 5620 5620 5620 5620 5619 5619 5620 5621 5621 5621 5621 5622 5623 5623 5622 5622 5623 5625 5627 5629 5631 5633 5635 5636 5638 5640 5642 5643 5644 5645 5646 5647 5647 5647 5648 5647 5647 5647 5646
5611 5611 5611 5611 5611 5611 5611 5611 5610 5610 5610 5611 5612 5612 5613 5614 5615 5616 5616 5615 5615 5616 5618 5620 5621 5623 5625 5627 5629 5631 5632 5633 5634 5634 5636 5636 5637 5637 5637 5637 5638 5637 5636
5605 5604 5603 5602 5602 5602 5601 5601 5601 5600 5601 5602 5602 5603 5604 5606 5608 5609 5610 5610 5609 5609 5609 5611 5612 5614 5616 5618 5620 5622 5623 5623 5624 5625 5626 5626 5627 5627 5628 5628 5628 5627 5626
5597 5596 5595 5594 5594 5593 5593 5592 5592 5592 5593 5594 5595 5596 5597 5599 5600 5602 5603 5604 5605 5604 5603 5603 5604 5606 5608 5610 5611 5612 5613 5614 5615 5616 5616 5617 5617 5618 5619 5619 5619 5618 5617
5590 5589 5588 5587 5586 5585 5585 5585 5585 5585 5586 5586 5587 5589 5590 5591 5592 5594 5596 5597 5597 5598 5597 5596 5597 5599 5600 5602 5603 5604 5605 5606 5606 5607 5608 5608 5609 5610 5610 5611 5610 5610 5609
5583 5581 5580 5579 5578 5578 5578 5578 5578 5579 5579 5579 5580 5582 5583 5585 5586 5587 5589 5590 5591 5591 5591 5590 5590 5592 5593 5595 5596 5597 5598 5598 5599 5599 5600 5601 5602 5602 5603 5603 5604 5603 5602
5576 5575 5573 5572 5571 5571 5571 5572 5572 5573 5573 5574 5574 5575 5577 5578 5580 5581 5583 5584 5585 5586 5586 5585 5584 5585 5587 5589 5590 5590 5591 5591 5593 5594 5594 5595 5596 5596 5596 5597 5597 5596 5596
5570 5568 5567 5566 5565 5565 5565 5566 5567 5567 5568 5568 5569 5570 5572 5573 5574 5576 5577 5578 5579 5579 5579 5579 5579 5580 5581 5583 5584 5584 5584 5585 5586 5588 5589 5589 5590 5590 5590 5591 5590 5590 5589
5565 5563 5561 5560 5560 5560 5561 5561 5562 5562 5562 5563 5564 5566 5567 5569 5571 5572 5573 5573 5574 5574 5574 5574 5574 5575 5576 5577 5578 5578 5579 5579 5581 5582 5583 5583 5584 5584 5585 5585 5585 5585 5584
5560 5558 5556 5555 5555 5556 5556 5557 5558 5558 5558 5559 5560 5561 5563 5565 5567 5568 5569 5570 5572 5572 5571 5571 5571 5571 5573 5574 5574 5575 5575 5575 5574 5577 5577 5578 5579 5579 5580 5581 5581 5581 5580
5555 5553 5552 5551 5551 5552 5553 5554 5555 5555 5555 5555 5556 5558 5560 5561 5563 5565 5566 5567 5568 5569 5570 5570 5569 5570 5571 5572 5572 5572 5572 5571 5571 5573 5573 5573 5574 5575 5577 5578 5578 5577 5577
5553 5551 5550 5549 5549 5550 5551 5552 5553 5553 5553 5553 5554 5555 5556 5558 5560 5562 5563 5564 5564 5565 5566 5568 5568 5569 5570 5570 5570 5570 5569 5569 5569 5570 5570 5569 5570 5571 5575 5575 5576 5575 5575
5551 5550 5549 5548 5548 5549 5550 5551 5552 5551 5551 5551 5552 5553 5554 5555 5557 5559 5560 5560 5561 5562 5564 5566 5567 5567 5568 5569 5568 5567 5566 5565 5564 5565 5567 5566 5567 5568 5570 5572 5574 5574 5573
5551 5550 5549 5548 5548 5548 5549 5550 5550 5549 5549 5549 5550 5551 5552 5553 5554 5556 5557 5558 5558 5559 5561 5563 5565 5566 5567 5568 5568 5567 5566 5563 5561 5562 5566 5565 5565 5564 5565 5569 5571 5572 5571